Карточка аэропорта USSS

Внимание!
Информация на этой странице в стадии наполнения.
Если вы не увидели какой-то информации, или заметили неточность - пожалуйста сообщите нам!
Спасибо!
Команда RU-STAFF
Название аэропортаКольцово
Название аэропорта (англ.)Koltsovo
Превышение766 ft. (233.5 m.)
Координаты56°44.586', 60°48.186'
Высота перехода4000ft
Эшелон переходаQNH>=1013hPa:FL50; QNH 1013hPa-977hPa:FL60; QNH<=977hpa:FL70
Коды ответчика5520-5557
Зона ОрВДЕкатеринбург РПИ (USSV)
Данные METARUSSS 160747Z 29006G11MPS 260V340 CAVOK 30/16 Q1014 R26L/010060 R26R/010060 NOSIG RMK QFE740/0986
Проноз погоды (TAF)USSS 160657Z 1607/1706 32003G14MPS 9999 SCT040CB TEMPO 1607/1619 VRB23MPS -TSRAGR SQ BKN020CB
NOTAMshow/hide NOTAM
AWOS   TABLE

Информация о ВПП

ВПП Длина ВПП (м.) Покрытие Курс ВПП Частота ILS
08L3004Асфальтобетон75111.7
08R3026Бетон79109.9
26R3004Асфальтобетон255110.5
26L3026Бетон259109.5

Диспетчерские позиции

Позывной Наименование органа УВД Частота
USSSFM1Машина сопровождения119.000
USSS_APPКольцово-Подход125.9
USSS_ATIS_APPКольцово АТИС127.850
USSS_GNDКольцово-Руление119.0
USSS_R_APPКольцово-Круг118.7
USSS_TWRКольцово-Старт124.3
USSV_FSS_CTRКольцово Транзит131.900



Спутниковое изображение